Tracking 27079 objects as of 23-Mar-2023
HD Live streaming from Space Station
objects crossing your sky now

SL-24 R/B

Track SL-24 R/B now!
10-day predictions


NORAD ID: 27610
Int'l Code: 2002-058F
Perigee: 598.9 km
Apogee: 1,009.4 km
Inclination: 64.6 °
Period: 100.8 minutes
Semi major axis: 7175 km
RCS: 7.1875 m2 (large)
Launch date: December 20, 2002
Source: Commonwealth of Independent States (former USSR) (CIS)
Launch site: TYURATAM MISSILE AND SPACE COMPLEX (TTMTR)

Note: This is a ROCKET BODY
Your satellite tracking list
Your tracking list is empty




NASA's NSSDC Master Catalog

Two Line Element Set (TLE):
1 27610U 02058F   23082.01842494  .00000212  00000-0  87724-4 0  9995
2 27610  64.5577 289.2169 0286031  16.8958 131.2450 14.28422900 55981
Source of the keplerian elements: AFSPC